GW3294 Weather Reports


time (UTC)temp
F
wind
direction
speed
knots
gust
knots
rain 1hr
in
rain 24hr
in
rain mn
in
humidity
%
barometer
mb
20260504221832 77 104 0.0 2.6 0.00 0.15 0.15 57 1005.3
20260504221327 78 142 0.0 1.7 0.00 0.15 0.15 58 1005.4
20260504220825 78 185 0.0 2.6 0.00 0.15 0.15 57 1005.5
20260504220321 78 68 0.9 2.6 0.00 0.15 0.15 58 1005.2
20260504215819 78 134 1.7 6.1 0.00 0.15 0.15 58 1005.4
20260504215315 79 125 1.7 3.5 0.00 0.15 0.15 55 1005.3
20260504214811 79 222 0.0 3.5 0.00 0.15 0.15 54 1005.3
20260504214308 80 142 2.6 7.8 0.00 0.15 0.15 55 1005.4
20260504213805 81 331 0.9 2.6 0.00 0.15 0.15 56 1005.6
20260504213301 79 255 1.7 2.6 0.00 0.15 0.15 60 1005.5
20260504212759 79 78 1.7 4.3 0.00 0.15 0.15 58 1005.6
20260504212255 79 253 0.0 4.3 0.00 0.15 0.15 60 1005.6
20260504211752 78 166 1.7 4.3 0.00 0.15 0.15 61 1005.7
20260504211248 77 198 0.0 6.1 0.00 0.15 0.15 63 1005.7
20260504210746 77 123 0.0 4.3 0.00 0.15 0.15 65 1005.7
20260504210243 77 154 1.7 4.3 0.00 0.15 0.15 65 1005.7
20260504205740 77 22 0.0 1.7 0.00 0.15 0.15 67 1005.7
20260504205238 76 101 0.0 7.8 0.00 0.15 0.15 66 1005.9
20260504204736 76 166 2.6 5.2 0.00 0.15 0.15 65 1005.9
20260504204234 75 95 0.0 3.5 0.00 0.15 0.15 71 1006.1
20260504203733 76 132 1.7 1.7 0.00 0.15 0.15 70 1006.1
20260504203230 76 157 2.6 7.0 0.00 0.15 0.15 65 1006.3
20260504202729 75 143 0.9 4.3 0.00 0.15 0.15 71 1006.3
20260504202227 74 194 0.9 4.3 0.00 0.15 0.15 70 1006.2
20260504201724 73 154 0.0 1.7 0.00 0.15 0.15 78 1006.3
20260504201221 72 89 0.9 1.7 0.00 0.15 0.15 80 1006.1
20260504200719 70 137 0.0 2.6 0.00 0.15 0.15 85 1006.5
20260504200214 68 255 0.0 1.7 0.00 0.15 0.15 89 1006.5
20260504195711 68 109 2.6 3.5 0.00 0.15 0.15 90 1006.2
20260504195207 66 77 0.0 1.7 0.00 0.15 0.15 92 1006.1
20260504194704 66 161 0.0 2.6 0.00 0.15 0.15 96 1006.3
20260504194200 66 157 1.7 2.6 0.00 0.15 0.15 96 1006.8
20260504193657 67 173 0.0 1.7 0.00 0.15 0.15 96 1006.9
20260504193155 66 163 0.9 1.7 0.00 0.15 0.15 96 1007.0
20260504192652 63 276 1.7 1.7 0.00 0.15 0.15 97 1006.9
20260504192150 62 31 0.9 1.7 0.00 0.15 0.15 97 1006.6
20260504191649 61 0 1.7 2.6 0.00 0.15 0.15 98 1006.8
20260504191144 61 236 0.9 1.7 0.00 0.15 0.15 98 1006.9
20260504190641 61 87 0.9 2.6 0.02 0.15 0.15 98 1007.3
20260504190137 60 63 0.9 1.7 0.05 0.15 0.15 98 1007.7
20260504185634 60 98 0.9 2.6 0.07 0.15 0.15 98 1007.8
20260504185130 60 97 1.7 2.6 0.05 0.14 0.14 97 1008.2
20260504184626 60 350 0.0 2.6 0.05 0.13 0.13 97 1008.1
20260504184121 60 43 0.9 1.7 0.07 0.13 0.13 96 1008.0
20260504183619 60 344 1.7 2.6 0.05 0.13 0.13 95 1007.5
20260504183116 60 19 1.7 2.6 0.09 0.12 0.12 95 1007.3
20260504182614 60 19 1.7 3.5 0.42 0.11 0.11 95 1007.3
20260504182111 60 118 0.0 2.6 0.45 0.10 0.10 95 1007.8
20260504181609 61 148 2.6 3.5 0.05 0.03 0.03 94 1008.6
20260504181106 61 96 0.9 2.6 0.00 0.02 0.02 92 1008.6
20260504180605 61 47 0.9 1.7 0.00 0.02 0.02 91 1008.4
20260504180104 61 31 0.0 1.7 0.00 0.02 0.02 91 1008.3
20260504175600 61 18 0.9 1.7 0.00 0.02 0.02 90 1008.0
20260504175057 61 1 0.9 1.7 0.00 0.02 0.02 91 1007.9
20260504174555 62 85 1.7 2.6 0.00 0.02 0.02 91 1008.0
20260504174051 62 89 0.0 1.7 0.00 0.02 0.02 89 1008.1
20260504173548 62 114 0.0 0.9 0.00 0.02 0.02 88 1008.1
20260504173046 62 132 0.9 1.7 0.00 0.02 0.02 85 1008.3
20260504172542 62 109 0.0 2.6 0.00 0.02 0.02 85 1008.2
20260504172038 62 89 0.0 1.7 0.00 0.02 0.02 82 1008.6
20260504171535 62 57 0.0 1.7 0.00 0.02 0.02 81 1008.3
20260504171032 63 45 0.0 2.6 0.07 0.02 0.02 77 1008.2
20260504170528 64 89 0.0 2.6 0.05 0.02 0.02 78 1008.1
20260504150912 68 230 0.0 1.7 0.00 0.00 0.00 60 1010.5
20260504150409 68 214 0.0 2.6 0.00 0.00 0.00 63 1010.3
20260504140835 68 213 0.0 2.6 0.00 0.00 0.00 62 1010.0
20260504140331 68 150 1.7 2.6 0.00 0.00 0.00 63 1010.1
20260504130800 64 88 1.7 4.3 0.00 0.00 0.00 70 1010.6
20260504130256 63 137 0.0 7.0 0.00 0.00 0.00 71 1010.6
20260504120220 55 157 0.9 2.6 0.00 0.00 0.00 89 1011.1
20260504110647 53 124 0.9 1.7 0.00 0.00 0.00 90 1011.1
20260504110143 53 135 1.7 2.6 0.00 0.00 0.00 90 1011.3
20260504100609 55 111 0.9 1.7 0.00 0.00 0.00 88 1010.8
20260504100107 55 114 0.0 1.7 0.00 0.00 0.00 88 1010.7
20260504082003 57 69 0.9 2.6 0.00 0.00 0.00 83 1010.7
20260504081500 57 144 0.0 2.6 0.00 0.00 0.00 82 1010.9
20260504080949 57 138 2.6 2.6 0.00 0.00 0.00 82 1010.7
20260504080447 57 65 0.0 1.7 0.00 0.00 0.00 81 1011.0
20260504050253 66 133 0.0 3.5 0.00 0.00 0.00 56 1010.7
20260504045750 66 295 2.6 6.1 0.00 0.00 0.00 56 1010.6
20260504045245 66 269 0.0 6.1 0.00 0.00 0.00 55 1010.8
20260504044743 67 187 1.7 7.0 0.00 0.00 0.00 55 1010.8
20260504044240 67 274 0.9 3.5 0.00 0.00 0.00 55 1010.9
20260504043737 67 112 2.6 5.2 0.00 0.00 0.00 55 1010.9
20260504043234 67 257 0.0 2.6 0.00 0.00 0.00 54 1011.0
20260504042732 67 196 0.0 5.2 0.00 0.00 0.00 54 1011.2
20260504042228 67 187 2.6 5.2 0.00 0.00 0.00 54 1011.5
20260504041724 68 197 0.0 4.3 0.00 0.00 0.00 53 1011.5
20260504041220 68 188 0.9 4.3 0.00 0.00 0.00 53 1011.5
20260504040717 68 134 1.7 3.5 0.00 0.00 0.00 53 1011.5
20260504040214 68 134 2.6 8.7 0.00 0.00 0.00 52 1011.5
20260504035710 68 243 1.7 3.5 0.00 0.00 0.00 52 1011.2
20260504035208 68 340 1.7 6.1 0.00 0.00 0.00 52 1011.8
20260504034705 68 239 1.7 6.1 0.00 0.00 0.00 52 1012.2
20260504034202 68 210 0.9 3.5 0.00 0.00 0.00 52 1011.9
20260504033700 68 230 1.7 2.6 0.00 0.00 0.00 53 1012.0
20260504033156 68 226 0.9 3.5 0.00 0.00 0.00 52 1011.9
20260504032653 68 245 1.7 6.1 0.00 0.00 0.00 52 1012.1
20260504032151 68 59 0.9 2.6 0.00 0.00 0.00 53 1012.1
20260504031647 68 296 1.7 4.3 0.00 0.00 0.00 52 1012.1
20260504031144 68 269 0.0 4.3 0.00 0.00 0.00 53 1012.2
20260504030640 67 231 1.7 2.6 0.00 0.00 0.00 53 1012.1
20260504030137 68 129 0.0 3.5 0.00 0.00 0.00 52 1012.1
20260504025634 68 146 1.7 3.5 0.00 0.00 0.00 54 1011.8
20260504025131 68 160 0.0 3.5 0.00 0.00 0.00 51 1012.1
20260504024628 68 132 0.0 3.5 0.00 0.00 0.00 52 1011.8
20260504024125 67 157 0.0 2.6 0.00 0.00 0.00 53 1012.0
20260504023621 67 151 0.9 3.5 0.00 0.00 0.00 54 1011.8
20260504023117 67 203 0.0 1.7 0.00 0.00 0.00 55 1012.0
20260504022614 67 205 0.9 1.7 0.00 0.00 0.00 55 1011.9
20260504022110 66 124 0.0 1.7 0.00 0.00 0.00 56 1011.9
20260504021608 66 121 0.9 1.7 0.00 0.00 0.00 58 1011.8
20260504021104 66 145 0.0 2.6 0.00 0.00 0.00 57 1011.7
20260504020601 67 141 0.0 1.7 0.00 0.00 0.00 57 1011.8
20260504020057 67 168 0.0 1.7 0.00 0.00 0.00 55 1011.7
20260504015554 67 153 0.9 1.7 0.00 0.00 0.00 58 1011.6
20260504015050 67 75 0.0 1.7 0.00 0.00 0.00 55 1011.6
20260504014546 68 162 0.0 3.5 0.00 0.00 0.00 55 1011.6
20260504014044 68 180 0.0 2.6 0.00 0.00 0.00 52 1011.5
20260504013541 69 129 0.0 0.9 0.00 0.00 0.00 56 1011.4
20260504013038 69 142 0.0 0.9 0.00 0.00 0.00 54 1011.5
20260504012536 70 122 0.0 0.9 0.00 0.00 0.00 52 1011.4
20260504012033 71 99 0.0 0.9 0.00 0.00 0.00 50 1011.4
20260504011530 71 224 0.0 2.6 0.00 0.00 0.00 51 1011.3
20260504011026 72 164 0.0 0.9 0.00 0.00 0.00 48 1011.3
20260504010521 72 164 0.0 2.6 0.00 0.00 0.00 45 1011.4
20260504010018 72 200 0.9 1.7 0.00 0.00 0.00 44 1011.4
20260504005515 73 134 0.0 4.3 0.00 0.00 0.00 45 1011.3
20260504005012 73 135 0.0 1.7 0.00 0.00 0.00 44 1011.4
20260504004510 73 256 0.0 1.7 0.00 0.00 0.00 42 1011.3
20260504004007 73 183 0.9 1.7 0.00 0.00 0.00 42 1011.3
20260504003503 74 154 0.0 2.6 0.00 0.00 0.00 41 1011.2
20260504003000 74 164 0.9 2.6 0.00 0.00 0.00 41 1011.4
20260504002457 74 195 0.0 5.2 0.00 0.00 0.00 40 1011.3
20260504001954 75 220 1.7 2.6 0.00 0.00 0.00 40 1011.1
20260504001451 75 131 0.0 3.5 0.00 0.00 0.00 40 1011.2
20260504000948 75 153 0.9 3.5 0.00 0.00 0.00 39 1011.2
20260504000445 75 189 4.3 5.2 0.00 0.00 0.00 39 1011.2
20260503235942 76 151 1.7 3.5 0.00 0.00 0.00 38 1011.3
20260503235440 76 198 1.7 3.5 0.00 0.00 0.00 38 1011.5
20260503234937 76 230 1.7 4.3 0.00 0.00 0.00 38 1011.6
20260503234435 76 153 0.9 7.0 0.00 0.00 0.00 37 1011.4
20260503233933 76 304 1.7 7.8 0.00 0.00 0.00 37 1011.4
20260503233429 77 159 0.0 5.2 0.00 0.00 0.00 36 1011.5
20260503232925 77 244 0.9 5.2 0.00 0.00 0.00 36 1011.5
20260503232422 77 131 1.7 5.2 0.00 0.00 0.00 36 1011.7
20260503231920 77 260 0.0 8.7 0.00 0.00 0.00 36 1011.6
20260503231417 77 158 3.5 7.0 0.00 0.00 0.00 35 1011.6
20260503230914 77 137 1.7 5.2 0.00 0.00 0.00 34 1011.7
20260503230410 77 317 0.9 4.3 0.00 0.00 0.00 34 1011.7
20260503225908 77 308 1.7 7.8 0.00 0.00 0.00 34 1011.7
20260503225404 78 298 2.6 4.3 0.00 0.00 0.00 34 1011.7
20260503224900 78 219 0.0 5.2 0.00 0.00 0.00 35 1012.0
20260503224357 78 256 2.6 7.0 0.00 0.00 0.00 34 1012.0
20260503223855 78 319 1.7 4.3 0.00 0.00 0.00 34 1011.7
20260503223353 78 312 2.6 3.5 0.00 0.00 0.00 33 1012.0
20260503222848 79 109 6.1 6.1 0.00 0.00 0.00 32 1011.9
20260503222347 80 272 1.7 3.5 0.00 0.00 0.00 31 1012.1